Des Moines, IA

7:20 AM CST on February 08, 2016 (GMT -0600)
Des Moines International

Weather History for KDSM - April, 2012

Change the Weather History Date:

Sunday, April 29, 2012

  Actual Average Record
Temperature  
Mean Temperature 48 °F 57 °F  
Max Temperature 50 °F 67 °F 92 °F (1910)
Min Temperature 46 °F 46 °F 24 °F (1958)
Degree Days  
Heating Degree Days 17 9  
Month to date heating degree days 272 403  
Since 1 July heating degree days 4648 6030  
Cooling Degree Days 0 1  
Month to date cooling degree days 23 12  
Year to date cooling degree days 57 13  
Moisture  
Dew Point 45 °F    
Average Humidity 85    
Maximum Humidity 93    
Minimum Humidity 76    
Precipitation  
Precipitation 0.16 in 0.16 in 1.71 in (1984)
Month to date precipitation 5.90 3.70  
Year to date precipitation 9.84 8.28  
Snow  
Snow 0.00 in 0.00 in 7.00 in (1907)
Month to date snowfall 0.0 1.8  
Since 1 July snowfall 20.9 35.3  
Snow Depth 0.00 in    
Sea Level Pressure  
Sea Level Pressure 30.07 in    
Wind  
Wind Speed 7 mph (East)    
Max Wind Speed 16 mph    
Max Gust Speed 21 mph    
Visibility 4 miles    
Events Rain    
T = Trace of Precipitation, MM = Missing Value Source: NWS Daily Summary

Daily Weather History Graph

Daily Weather History Graph

Search for Another Location

Airport or City:

Trip Planner

Search our weather history database for the weather conditions in past years. The results will help you decide how hot, cold, wet, or windy it might be!

Date:

Astronomy

Apr. 29, 2012 Rise Set
Actual Time 6:13 AM CDT 8:10 PM CDT
Civil Twilight 5:43 AM CDT 8:41 PM CDT
Nautical Twilight 5:06 AM CDT 9:17 PM CDT
Astronomical Twilight 4:27 AM CDT 9:57 PM CDT
Moon 12:58 PM CDT (4/29) 2:09 AM CDT (4/29)
Length of Visible Light 14h 57m
Length of Day
13h 57m
First Quarter, 53% of the Moon is Illuminated
Apr 29
First Quarter
May 5
Full
May 12
Last Quarter
May 20
New
May 28
First Quarter

Hourly Weather History & Observations

Time (CDT) Temp. Dew Point Humidity Pressure Visibility Wind Dir Wind Speed Gust Speed Precip Events Conditions
12:54 AM 48.9 °F 45.0 °F 86% 30.16 in 4.0 mi ENE 10.4 mph - N/A   Overcast
1:54 AM 48.0 °F 44.1 °F 86% 30.15 in 3.0 mi East 10.4 mph - N/A   Overcast
2:54 AM 48.9 °F 43.0 °F 80% 30.12 in 6.0 mi ENE 11.5 mph - N/A   Haze
3:23 AM 48.2 °F 42.8 °F 82% 30.12 in 6.0 mi East 15.0 mph 20.7 mph N/A   Haze
3:54 AM 48.9 °F 42.1 °F 77% 30.15 in 7.0 mi East 9.2 mph - N/A   Overcast
4:54 AM 48.0 °F 42.1 °F 80% 30.14 in 8.0 mi East 6.9 mph - N/A   Overcast
5:15 AM 48.2 °F 41.0 °F 76% 30.13 in 7.0 mi East 9.2 mph 17.3 mph N/A   Overcast
5:54 AM 48.0 °F 42.1 °F 80% 30.13 in 7.0 mi East 10.4 mph - N/A   Overcast
6:54 AM 46.9 °F 41.0 °F 80% 30.14 in 4.0 mi East 9.2 mph - N/A   Haze
7:54 AM 46.9 °F 39.9 °F 77% 30.14 in 5.0 mi East 13.8 mph 20.7 mph N/A   Haze
8:54 AM 46.9 °F 41.0 °F 80% 30.14 in 4.0 mi East 8.1 mph - N/A   Haze
9:54 AM 48.0 °F 42.1 °F 80% 30.12 in 5.0 mi East 5.8 mph - N/A   Haze
10:54 AM 48.9 °F 42.1 °F 77% 30.12 in 4.0 mi East 6.9 mph - N/A   Haze
11:54 AM 48.9 °F 43.0 °F 80% 30.11 in 4.0 mi East 10.4 mph - N/A   Haze
12:34 PM 48.2 °F 44.6 °F 87% 30.10 in 1.8 mi East 10.4 mph - 0.00 in   Light Drizzle
12:44 PM 48.2 °F 44.6 °F 87% 30.10 in 1.2 mi ESE 6.9 mph - 0.00 in   Light Drizzle
12:48 PM 48.2 °F 44.6 °F 87% 30.10 in 1.8 mi ESE 6.9 mph - 0.00 in   Light Drizzle
12:54 PM 48.0 °F 45.0 °F 89% 30.10 in 2.0 mi East 5.8 mph - 0.00 in   Light Drizzle
1:01 PM 48.2 °F 44.6 °F 87% 30.08 in 1.5 mi East 6.9 mph - 0.00 in   Light Drizzle
1:54 PM 48.0 °F 45.0 °F 89% 30.06 in 1.5 mi East 8.1 mph - 0.01 in Rain Light Rain
2:54 PM 48.9 °F 46.0 °F 90% 30.04 in 1.5 mi East 8.1 mph - 0.02 in Rain Light Rain
3:05 PM 50.0 °F 46.4 °F 87% 30.03 in 2.0 mi East 5.8 mph - N/A Rain Light Rain
3:54 PM 50.0 °F 46.0 °F 86% 30.04 in 3.0 mi East 5.8 mph - 0.02 in Rain Light Rain
4:54 PM 50.0 °F 46.9 °F 89% 30.03 in 3.0 mi East 4.6 mph - 0.03 in Rain Light Rain
5:54 PM 50.0 °F 46.9 °F 89% 30.01 in 3.0 mi ENE 5.8 mph - 0.00 in Rain Light Rain
6:54 PM 50.0 °F 46.9 °F 89% 30.01 in 3.0 mi ESE 5.8 mph - 0.00 in   Overcast
7:13 PM 50.0 °F 46.4 °F 87% 30.00 in 2.5 mi East 5.8 mph - 0.00 in Rain Light Rain
7:33 PM 50.0 °F 46.4 °F 87% 29.99 in 3.0 mi East 3.5 mph - 0.00 in   Light Drizzle
7:54 PM 50.0 °F 46.9 °F 89% 29.99 in 3.0 mi East 4.6 mph - 0.00 in   Overcast
8:10 PM 50.0 °F 46.4 °F 87% 29.98 in 3.0 mi East 3.5 mph - 0.00 in   Light Drizzle
8:54 PM 50.0 °F 46.4 °F 87% 30.01 in 3.0 mi Calm Calm - N/A Rain Light Rain
9:00 PM 50.0 °F 46.4 °F 87% 30.01 in 2.5 mi Calm Calm - 0.01 in Rain Rain
9:17 PM 50.0 °F 48.2 °F 94% 30.01 in 2.5 mi Calm Calm - 0.05 in Rain Light Rain
9:28 PM 50.0 °F 46.4 °F 87% 30.02 in 2.5 mi Calm Calm - N/A Rain Light Rain
9:54 PM 50.0 °F 48.0 °F 93% 30.02 in 2.5 mi North 3.5 mph - 0.07 in   Overcast
10:08 PM 50.0 °F 46.4 °F 87% 30.00 in 2.5 mi North 4.6 mph - N/A   Overcast
10:36 PM 50.0 °F 48.2 °F 94% 30.01 in 2.5 mi Calm Calm - N/A   Overcast
10:54 PM 50.0 °F 48.0 °F 93% 30.01 in 2.5 mi ENE 4.6 mph - N/A   Overcast
11:46 PM 50.0 °F 46.4 °F 87% 29.99 in 4.0 mi Calm Calm - N/A   Overcast
11:54 PM 50.0 °F 46.9 °F 89% 30.01 in 4.0 mi Calm Calm - N/A   Overcast